Tracking 30701 objects as of 14-Jun-2025
HD Live streaming from Space Station
objects crossing your sky now

STARLINK-4462

Track STARLINK-4462 now!
10-day predictions
STARLINK-4462 is classified as:


NORAD ID: 53781
Int'l Code: 2022-111J
Perigee: 545.9 km
Apogee: 547.8 km
Inclination: 53.2 °
Period: 95.4 minutes
Semi major axis: 6917 km
RCS: Unknown
Launch date: September 11, 2022
Source: United States (US)
Launch site: AIR FORCE EASTERN TEST RANGE (AFETR)
Your satellite tracking list
Your tracking list is empty




NASA's NSSDC Master Catalog

Two Line Element Set (TLE):
1 53781U 22111J   25164.93685885 -.00000674  00000-0 -24287-4 0  9997
2 53781  53.2194  40.5952 0001342  90.5047 269.6099 15.08844528153128
Source of the keplerian elements: AFSPC